DHK36 EGNX-EDDN

Flight info

Callsign DHK36
Flight time N/A
Altitude 35000
Route TNT M868 EVSON UM868 ADELU L60 MAMUL L603 DOLAS DCT NAVPI DCT TACHA DCT ONUNE DCT GMH DCT TESGA Z719 ETOLU Z723 RITUP/N0433F230 Z723 KOMIB T193 ERTES T194 DODAS DODAS1V
Aircraft B752/M-SDE2E3FGHIJ3J4J7RWXY/LB1

Departure

Time 2026-05-04 19:22
Airport East Midlands Airport (EGNX)

Arrival

Time N/A
Airport Nuremberg Airport (EDDN)
Time Latitude Longitude Altitude Speed Heading
2026-05-04 17:26 52.82707 -1.34583 317 ft 0 kts 268°
2026-05-04 19:06 52.82707 -1.34567 316 ft 2 kts 271°
2026-05-04 19:07 52.82708 -1.34542 316 ft 2 kts 267°
2026-05-04 19:07 52.82707 -1.34516 315 ft 2 kts 288°
2026-05-04 19:07 52.82701 -1.34495 315 ft 2 kts 308°
2026-05-04 19:07 52.82690 -1.34478 316 ft 2 kts 329°
2026-05-04 19:08 52.82676 -1.34469 315 ft 2 kts 350°
2026-05-04 19:08 52.82669 -1.34467 315 ft 1 kts
2026-05-04 19:08 52.82666 -1.34467 316 ft 0 kts 359°
2026-05-04 19:13 52.82667 -1.34468 315 ft 1 kts 359°
2026-05-04 19:14 52.82685 -1.34468 315 ft 3 kts 359°
2026-05-04 19:14 52.82732 -1.34472 315 ft 9 kts 356°
2026-05-04 19:14 52.82793 -1.34476 315 ft 5 kts
2026-05-04 19:14 52.82827 -1.34460 315 ft 4 kts 36°
2026-05-04 19:15 52.82856 -1.34418 316 ft 6 kts 36°
2026-05-04 19:15 52.82892 -1.34372 316 ft 6 kts 49°
2026-05-04 19:15 52.82905 -1.34293 315 ft 7 kts 86°
2026-05-04 19:15 52.82906 -1.34205 316 ft 8 kts 91°
2026-05-04 19:16 52.82905 -1.34096 316 ft 11 kts 90°
2026-05-04 19:16 52.82907 -1.33948 316 ft 14 kts 89°
2026-05-04 19:16 52.82911 -1.33760 315 ft 17 kts 88°
2026-05-04 19:16 52.82915 -1.33562 316 ft 17 kts 89°
2026-05-04 19:17 52.82919 -1.33363 316 ft 16 kts 88°
2026-05-04 19:17 52.82923 -1.33178 315 ft 15 kts 86°
2026-05-04 19:17 52.82931 -1.33013 316 ft 13 kts 89°
2026-05-04 19:17 52.82931 -1.32853 316 ft 14 kts 90°
2026-05-04 19:18 52.82932 -1.32671 316 ft 16 kts 89°
2026-05-04 19:18 52.82934 -1.32467 316 ft 18 kts 88°
2026-05-04 19:18 52.82939 -1.32237 316 ft 21 kts 88°
2026-05-04 19:18 52.82943 -1.31989 316 ft 22 kts 89°
2026-05-04 19:19 52.82949 -1.31725 316 ft 23 kts 87°
2026-05-04 19:19 52.82954 -1.31447 316 ft 25 kts 90°
2026-05-04 19:19 52.82957 -1.31150 316 ft 26 kts 89°
2026-05-04 19:19 52.82963 -1.30877 316 ft 10 kts 86°
2026-05-04 19:20 52.82972 -1.30784 316 ft 7 kts 73°
2026-05-04 19:20 52.83002 -1.30710 316 ft 7 kts 40°
2026-05-04 19:20 52.83061 -1.30671 316 ft 10 kts
2026-05-04 19:20 52.83129 -1.30710 316 ft 10 kts 302°
2026-05-04 19:21 52.83131 -1.30829 316 ft 11 kts 268°
2026-05-04 19:21 52.83128 -1.30997 316 ft 22 kts 269°
2026-05-04 19:21 52.83120 -1.31546 316 ft 76 kts 268°
2026-05-04 19:21 52.83099 -1.32740 316 ft 132 kts 269°
2026-05-04 19:22 52.83065 -1.34537 360 ft 177 kts 269°
2026-05-04 19:22 52.83023 -1.36765 659 ft 204 kts 270°
2026-05-04 19:22 52.83316 -1.38866 1699 ft 188 kts 295°
2026-05-04 19:22 52.83892 -1.40903 1904 ft 207 kts 298°
2026-05-04 19:23 52.84560 -1.43088 2285 ft 216 kts 298°
2026-05-04 19:23 52.85274 -1.45362 2525 ft 237 kts 301°
2026-05-04 19:23 52.86093 -1.47860 2966 ft 248 kts 300°
2026-05-04 19:23 52.86878 -1.50316 3602 ft 252 kts 300°
2026-05-04 19:24 52.88031 -1.52642 3910 ft 267 kts 315°
2026-05-04 19:24 52.89243 -1.54842 4899 ft 259 kts 316°
2026-05-04 19:24 52.90658 -1.56707 5506 ft 264 kts 328°
2026-05-04 19:24 52.92260 -1.58244 6001 ft 275 kts 333°
2026-05-04 19:25 52.93987 -1.59605 5976 ft 274 kts 338°
2026-05-04 19:25 52.95707 -1.60802 5969 ft 264 kts 336°
2026-05-04 19:25 52.97398 -1.61975 5972 ft 261 kts 338°
2026-05-04 19:25 52.99087 -1.63074 5979 ft 266 kts 339°
2026-05-04 19:26 53.00824 -1.64169 5972 ft 267 kts 339°
2026-05-04 19:26 53.02547 -1.65236 5965 ft 265 kts 339°
2026-05-04 19:26 53.04287 -1.66302 5970 ft 264 kts 339°
2026-05-04 19:26 53.06006 -1.67357 5987 ft 268 kts 339°
2026-05-04 19:27 53.07769 -1.68452 6610 ft 269 kts 339°
2026-05-04 19:27 53.09499 -1.69525 7280 ft 270 kts 339°
2026-05-04 19:27 53.11266 -1.70620 7860 ft 274 kts 339°
2026-05-04 19:27 53.13057 -1.71731 8438 ft 278 kts 339°
2026-05-04 19:28 53.14879 -1.72861 9028 ft 280 kts 339°
2026-05-04 19:28 53.16773 -1.73552 9569 ft 285 kts
2026-05-04 19:28 53.18721 -1.73027 10129 ft 288 kts 12°
2026-05-04 19:28 53.20707 -1.72283 10451 ft 301 kts 11°
2026-05-04 19:29 53.22778 -1.71501 10586 ft 320 kts 12°
2026-05-04 19:29 53.25034 -1.70625 10750 ft 339 kts 12°
2026-05-04 19:29 53.27382 -1.69701 10890 ft 358 kts 12°
2026-05-04 19:29 53.29881 -1.68709 11198 ft 371 kts 12°
2026-05-04 19:30 53.32373 -1.67715 11822 ft 374 kts 12°
2026-05-04 19:30 53.34875 -1.66473 12345 ft 380 kts 22°
2026-05-04 19:30 53.37130 -1.64207 12899 ft 385 kts 38°
2026-05-04 19:30 53.39137 -1.61236 13431 ft 388 kts 40°
2026-05-04 19:31 53.41093 -1.58062 13938 ft 393 kts 50°
2026-05-04 19:31 53.42559 -1.54187 14423 ft 398 kts 65°
2026-05-04 19:31 53.43365 -1.49829 14945 ft 400 kts 80°
2026-05-04 19:31 53.43480 -1.45116 15406 ft 403 kts 96°
2026-05-04 19:32 53.43038 -1.40546 15874 ft 405 kts 99°
2026-05-04 19:32 53.42579 -1.35878 16307 ft 408 kts 99°
2026-05-04 19:32 53.42127 -1.31196 16799 ft 410 kts 100°
2026-05-04 19:32 53.41517 -1.26530 17184 ft 412 kts 108°
2026-05-04 19:33 53.40684 -1.21931 17636 ft 414 kts 107°
2026-05-04 19:33 53.39849 -1.17285 18077 ft 417 kts 108°
2026-05-04 19:33 53.39011 -1.12666 18533 ft 419 kts 108°
2026-05-04 19:33 53.38155 -1.07976 18917 ft 423 kts 108°
2026-05-04 19:34 53.37299 -1.03301 19331 ft 426 kts 108°
2026-05-04 19:34 53.36430 -0.98574 19748 ft 428 kts 108°
2026-05-04 19:34 53.35544 -0.93768 20125 ft 432 kts 108°
2026-05-04 19:34 53.34658 -0.88980 20550 ft 433 kts 108°
2026-05-04 19:35 53.33765 -0.84160 20884 ft 437 kts 108°
2026-05-04 19:35 53.32865 -0.79313 21296 ft 439 kts 108°
2026-05-04 19:35 53.31963 -0.74476 21664 ft 442 kts 108°
2026-05-04 19:35 53.31050 -0.69586 22040 ft 444 kts 108°
2026-05-04 19:36 53.30112 -0.64581 22326 ft 449 kts 108°
2026-05-04 19:36 53.29186 -0.59650 22731 ft 450 kts 108°
2026-05-04 19:36 53.28252 -0.54687 23002 ft 454 kts 108°
2026-05-04 19:36 53.27302 -0.49656 23351 ft 456 kts 108°
2026-05-04 19:37 53.26345 -0.44600 23680 ft 459 kts 108°
2026-05-04 19:37 53.25382 -0.39526 24001 ft 461 kts 108°
2026-05-04 19:37 53.24410 -0.34418 24379 ft 463 kts 109°
2026-05-04 19:37 53.23430 -0.29282 24724 ft 466 kts 109°
2026-05-04 19:38 53.22449 -0.24162 25162 ft 466 kts 109°
2026-05-04 19:38 53.21459 -0.19002 25521 ft 469 kts 108°
2026-05-04 19:38 53.20471 -0.13864 25863 ft 471 kts 109°
2026-05-04 19:38 53.19465 -0.08649 26254 ft 472 kts 109°
2026-05-04 19:39 53.18462 -0.03463 26606 ft 474 kts 109°
2026-05-04 19:39 53.17456 0.01719 26948 ft 476 kts 109°
2026-05-04 19:39 53.16438 0.06951 27286 ft 477 kts 109°
2026-05-04 19:39 53.15419 0.12181 27588 ft 480 kts 109°
2026-05-04 19:40 53.14380 0.17491 27902 ft 481 kts 109°
2026-05-04 19:40 53.13341 0.22787 28214 ft 483 kts 109°
2026-05-04 19:40 53.12306 0.28052 28495 ft 485 kts 109°
2026-05-04 19:40 53.11256 0.33379 28810 ft 486 kts 109°
2026-05-04 19:41 53.10195 0.38745 29092 ft 488 kts 109°
2026-05-04 19:41 53.09132 0.44106 29369 ft 490 kts 109°
2026-05-04 19:41 53.08071 0.49442 29641 ft 491 kts 109°
2026-05-04 19:41 53.06996 0.54830 29963 ft 492 kts 109°
2026-05-04 19:42 53.05917 0.60230 30164 ft 495 kts 109°
2026-05-04 19:42 53.04836 0.65622 30545 ft 494 kts 110°
2026-05-04 19:42 53.03755 0.71000 30881 ft 494 kts 110°
2026-05-04 19:42 53.02662 0.76424 31158 ft 494 kts 110°
2026-05-04 19:43 53.01586 0.81745 31474 ft 493 kts 110°
2026-05-04 19:43 53.00491 0.87144 31719 ft 493 kts 110°
2026-05-04 19:43 52.99402 0.92505 32036 ft 492 kts 110°
2026-05-04 19:43 52.98300 0.97913 32368 ft 490 kts 110°
2026-05-04 19:44 52.97161 1.03228 32571 ft 490 kts 111°
2026-05-04 19:44 52.95977 1.08447 32813 ft 490 kts 111°
2026-05-04 19:44 52.94771 1.13786 33032 ft 490 kts 111°
2026-05-04 19:44 52.93577 1.19059 33230 ft 490 kts 111°
2026-05-04 19:45 52.92379 1.24338 33475 ft 488 kts 111°
2026-05-04 19:45 52.91195 1.29544 33678 ft 488 kts 111°
2026-05-04 19:45 52.89999 1.34784 33867 ft 488 kts 111°
2026-05-04 19:45 52.88792 1.40067 34084 ft 486 kts 111°
2026-05-04 19:46 52.87598 1.45275 34198 ft 488 kts 111°
2026-05-04 19:46 52.86401 1.50485 34382 ft 487 kts 111°
2026-05-04 19:46 52.85193 1.55730 34522 ft 487 kts 111°
2026-05-04 19:46 52.83986 1.60959 34687 ft 487 kts 111°
2026-05-04 19:47 52.82783 1.66157 34821 ft 486 kts 112°
2026-05-04 19:47 52.81587 1.71313 34960 ft 485 kts 112°
2026-05-04 19:47 52.80387 1.76473 35022 ft 480 kts 112°
2026-05-04 19:48 52.77978 1.86797 35030 ft 482 kts 112°
2026-05-04 19:48 52.75558 1.97113 35025 ft 484 kts 112°
2026-05-04 19:49 52.73135 2.07395 35031 ft 485 kts 112°
2026-05-04 19:49 52.70679 2.17765 35024 ft 486 kts 112°
2026-05-04 19:50 52.68230 2.28060 35026 ft 486 kts 112°
2026-05-04 19:50 52.65770 2.38347 35024 ft 485 kts 112°
2026-05-04 19:51 52.63294 2.48659 35025 ft 485 kts 112°
2026-05-04 19:51 52.60819 2.58912 35024 ft 485 kts 112°
2026-05-04 19:52 52.58311 2.69256 35024 ft 485 kts 114°
2026-05-04 19:52 52.55637 2.79303 35020 ft 481 kts 122°
2026-05-04 19:53 52.51473 2.87788 35022 ft 477 kts 139°
2026-05-04 19:53 52.46555 2.95028 35014 ft 477 kts 141°
2026-05-04 19:54 52.41585 3.02071 35010 ft 476 kts 141°
2026-05-04 19:54 52.36560 3.09057 35010 ft 475 kts 142°
2026-05-04 19:55 52.31540 3.15972 35008 ft 474 kts 142°
2026-05-04 19:55 52.26939 3.23658 35021 ft 478 kts 127°
2026-05-04 19:56 52.23953 3.33357 35021 ft 484 kts 110°
2026-05-04 19:56 52.21900 3.43688 35007 ft 483 kts 110°
2026-05-04 19:57 52.19858 3.54093 35004 ft 483 kts 110°
2026-05-04 19:57 52.17825 3.64498 34997 ft 483 kts 110°
2026-05-04 19:58 52.15792 3.74878 34992 ft 483 kts 111°
2026-05-04 19:58 52.13755 3.85234 34996 ft 484 kts 111°
2026-05-04 19:59 52.11691 3.95680 34990 ft 484 kts 111°
2026-05-04 19:59 52.09639 4.06009 34990 ft 484 kts 111°
2026-05-04 20:00 52.07562 4.16413 34989 ft 484 kts 111°
2026-05-04 20:00 52.05487 4.26753 34977 ft 483 kts 111°
2026-05-04 20:01 52.03400 4.37093 34976 ft 484 kts 111°
2026-05-04 20:01 52.01310 4.47395 34974 ft 482 kts 111°
2026-05-04 20:02 51.99210 4.57697 34970 ft 482 kts 111°
2026-05-04 20:02 51.97103 4.67973 34962 ft 484 kts 112°
2026-05-04 20:03 51.94981 4.78267 34957 ft 483 kts 112°
2026-05-04 20:03 51.92848 4.88567 34948 ft 483 kts 112°
2026-05-04 20:04 51.90712 4.98829 34949 ft 484 kts 112°
2026-05-04 20:04 51.88556 5.09135 34961 ft 484 kts 112°
2026-05-04 20:05 51.86395 5.19408 34963 ft 485 kts 112°
2026-05-04 20:05 51.84230 5.29650 34961 ft 484 kts 112°
2026-05-04 20:06 51.82053 5.39900 34959 ft 483 kts 112°
2026-05-04 20:06 51.79871 5.50113 34962 ft 485 kts 113°
2026-05-04 20:07 51.77671 5.60369 34962 ft 484 kts 113°
2026-05-04 20:07 51.75449 5.70666 34960 ft 485 kts 114°
2026-05-04 20:08 51.73218 5.80957 34960 ft 484 kts 114°
2026-05-04 20:08 51.70992 5.91173 34969 ft 486 kts 114°
2026-05-04 20:09 51.68765 6.01344 34966 ft 485 kts 114°
2026-05-04 20:09 51.66521 6.11543 34974 ft 485 kts 114°
2026-05-04 20:10 51.64265 6.21747 34966 ft 486 kts 114°
2026-05-04 20:10 51.62016 6.31880 34966 ft 476 kts 115°
2026-05-04 20:11 51.59786 6.41855 34969 ft 479 kts 115°
2026-05-04 20:11 51.57522 6.51944 34970 ft 483 kts 115°
2026-05-04 20:12 51.55228 6.62122 34970 ft 487 kts 115°
2026-05-04 20:12 51.52911 6.72344 34961 ft 490 kts 116°
2026-05-04 20:13 51.50583 6.82573 34961 ft 493 kts 116°
2026-05-04 20:13 51.48220 6.92904 34959 ft 494 kts 116°
2026-05-04 20:14 51.45854 7.03196 34959 ft 494 kts 116°
2026-05-04 20:14 51.43463 7.13551 34956 ft 494 kts 116°
2026-05-04 20:15 51.41078 7.23825 34961 ft 495 kts 116°
2026-05-04 20:15 51.38680 7.34108 34962 ft 495 kts 116°
2026-05-04 20:16 51.35729 7.43902 34973 ft 485 kts 127°
2026-05-04 20:16 51.32123 7.52941 34964 ft 486 kts 128°
2026-05-04 20:17 51.28402 7.62027 34967 ft 487 kts 128°
2026-05-04 20:17 51.24681 7.70988 34954 ft 485 kts 129°
2026-05-04 20:18 51.20952 7.79899 34960 ft 485 kts 129°
2026-05-04 20:18 51.16843 7.88265 34974 ft 477 kts 142°
2026-05-04 20:19 51.11617 7.94449 34961 ft 471 kts 152°
2026-05-04 20:19 51.06141 8.00178 34958 ft 473 kts 152°
2026-05-04 20:20 51.00603 8.05855 34958 ft 475 kts 152°
2026-05-04 20:20 50.95034 8.11512 34964 ft 475 kts 152°
2026-05-04 20:21 50.89479 8.17122 34965 ft 474 kts 152°
2026-05-04 20:21 50.81184 8.25452 34971 ft 474 kts 152°
2026-05-04 20:22 50.75593 8.31046 34962 ft 473 kts 152°
2026-05-04 20:22 50.70053 8.36571 34973 ft 473 kts 152°
2026-05-04 20:23 50.64520 8.42074 34966 ft 472 kts 152°
2026-05-04 20:23 50.58996 8.47555 34975 ft 472 kts 152°
2026-05-04 20:24 50.53417 8.53072 34967 ft 473 kts 152°
2026-05-04 20:24 50.47891 8.58522 34965 ft 472 kts 152°
2026-05-04 20:25 50.42591 8.64537 34968 ft 468 kts 143°
2026-05-04 20:25 50.37797 8.71054 34511 ft 451 kts 144°
2026-05-04 20:26 50.35449 8.74242 33963 ft 444 kts 144°
2026-05-04 20:26 50.33157 8.77352 33378 ft 441 kts 144°
2026-05-04 20:26 50.30856 8.80473 32825 ft 440 kts 144°
2026-05-04 20:26 50.28525 8.83631 32371 ft 442 kts 144°
2026-05-04 20:27 50.26337 8.86964 31911 ft 451 kts 135°
2026-05-04 20:27 50.24477 8.90941 31688 ft 454 kts 126°
2026-05-04 20:27 50.23026 8.95372 31062 ft 468 kts 116°
2026-05-04 20:27 50.22022 9.00253 30472 ft 475 kts 107°
2026-05-04 20:28 50.21520 9.05308 29907 ft 478 kts 99°
2026-05-04 20:28 50.21109 9.10411 29357 ft 475 kts 104°
2026-05-04 20:28 50.20430 9.15387 28841 ft 470 kts 108°
2026-05-04 20:28 50.19604 9.20291 28340 ft 464 kts 109°
2026-05-04 20:29 50.18756 9.25064 27856 ft 461 kts 106°
2026-05-04 20:29 50.18294 9.30032 27390 ft 462 kts 96°
2026-05-04 20:29 50.18266 9.35006 26839 ft 463 kts 92°
2026-05-04 20:29 50.18303 9.39971 26315 ft 460 kts 92°
2026-05-04 20:30 50.18346 9.44908 25827 ft 454 kts 92°
2026-05-04 20:30 50.18395 9.49836 25361 ft 449 kts 91°
2026-05-04 20:30 50.18446 9.54677 24861 ft 447 kts 91°
2026-05-04 20:30 50.18500 9.59511 24336 ft 446 kts 91°
2026-05-04 20:31 50.18552 9.64284 23836 ft 442 kts 91°
2026-05-04 20:31 50.18603 9.69045 23345 ft 437 kts 91°
2026-05-04 20:31 50.18652 9.73687 22949 ft 430 kts 91°
2026-05-04 20:31 50.18699 9.78281 22936 ft 421 kts 92°
2026-05-04 20:32 50.18742 9.82916 22945 ft 430 kts 91°
2026-05-04 20:32 50.18785 9.87556 22943 ft 437 kts 91°
2026-05-04 20:32 50.18825 9.92290 22933 ft 436 kts 92°
2026-05-04 20:32 50.18605 9.96925 22942 ft 430 kts 102°
2026-05-04 20:33 50.17864 10.01420 22945 ft 427 kts 113°
2026-05-04 20:33 50.16625 10.05612 22941 ft 424 kts 123°
2026-05-04 20:33 50.14980 10.09388 22939 ft 421 kts 130°
2026-05-04 20:33 50.13220 10.12956 22934 ft 421 kts 131°
2026-05-04 20:34 50.11389 10.16525 22929 ft 421 kts 131°
2026-05-04 20:34 50.09530 10.20061 22929 ft 420 kts 132°
2026-05-04 20:34 50.07758 10.23644 22936 ft 422 kts 125°
2026-05-04 20:34 50.06355 10.27634 22936 ft 426 kts 118°
2026-05-04 20:35 50.05063 10.31819 22929 ft 427 kts 118°
2026-05-04 20:35 50.03790 10.35933 22933 ft 426 kts 118°
2026-05-04 20:35 50.02518 10.40060 22933 ft 426 kts 118°
2026-05-04 20:35 50.01247 10.44188 22928 ft 426 kts 118°
2026-05-04 20:36 49.99969 10.48338 22939 ft 426 kts 118°
2026-05-04 20:36 49.98685 10.52495 22940 ft 427 kts 119°
2026-05-04 20:36 49.97185 10.56413 22950 ft 423 kts 129°
2026-05-04 20:36 49.95264 10.59841 22950 ft 419 kts 139°
2026-05-04 20:37 49.93012 10.62622 22957 ft 416 kts 150°
2026-05-04 20:37 49.90472 10.64730 22960 ft 413 kts 159°
2026-05-04 20:37 49.87807 10.66414 22959 ft 412 kts 161°
2026-05-04 20:37 49.85131 10.67998 22957 ft 411 kts 162°
2026-05-04 20:38 49.82476 10.69490 22959 ft 410 kts 165°
2026-05-04 20:38 49.79716 10.70485 22971 ft 407 kts 175°
2026-05-04 20:38 49.76893 10.71021 22963 ft 407 kts 175°
2026-05-04 20:38 49.74123 10.71471 22958 ft 405 kts 180°
2026-05-04 20:39 49.71304 10.71274 22972 ft 399 kts 191°
2026-05-04 20:39 49.68695 10.70313 22875 ft 376 kts 201°
2026-05-04 20:39 49.66448 10.68584 22759 ft 354 kts 217°
2026-05-04 20:39 49.64725 10.66090 22658 ft 333 kts 233°
2026-05-04 20:40 49.63627 10.63055 22448 ft 321 kts 250°